sat.trackr.live / text

‹ back to catalog

QIANFAN-126

NORAD 68653 · 2026-075T

PAYLOAD ACTIVE UNKNOWN

§ Identity

Operator
Country
PRC
Launch date
2026-04-07
Launch site
WSC
Launch vehicle
Mass (kg)
RCS (m²)

External: N2YO · Heavens-Above · Gunter

§ Orbital elements

Epoch: 2026-09-19T22:25:33.951072Z

Period
106.59 min
Inclination
88.9868°
Eccentricity
0.0002070
Mean motion
13.51029394 rev/d
Perigee alt
1,066.9 km
Apogee alt
1,070.0 km
Semi-major
7,446.6 km
B*
6.2937e-5
RAAN
311.2916°
Arg perigee
82.2150°
Mean anomaly
277.9236°
Rev number
2,262

§ Raw data

QIANFAN-1261 68653U 26075T   26262.93442073  .00000053  00000+0  62937-4 0  99962 68653  88.9868 311.2916 0002070  82.2150 277.9236 13.51029394 22622

JSON: /api/v1/satellites/68653 · /tle

For live sub-satellite position, see the globe view (requires WebGL).

§ Visibility from observer

Set your observer location to see the next 7 days of passes ≥ 10°. The values pass through the URL so the page stays shareable.

No JS? Fill the form by hand. The geolocation button needs JavaScript.